| time (UTC) | temp C | wind direction | speed KPH | gust KPH | rain 1hr cm | rain 24hr cm | rain mn cm | humidity % | barometer mb |
| 20260504210238 | 8 | 0.0 | 0.0 | 0.00 | 0.00 | 0.00 | 56 | 1005.2 | |
| 20260504200233 | 8 | 0.0 | 0.0 | 0.00 | 0.00 | 0.00 | 57 | 1005.3 | |
| 20260504190233 | 8 | 0.0 | 0.0 | 0.00 | 0.00 | 0.00 | 56 | 1005.4 | |
| 20260504180240 | 9 | 0.0 | 0.0 | 0.00 | 0.00 | 0.00 | 51 | 1005.6 | |
| 20260504170249 | 10 | 0.0 | 0.0 | 0.00 | 0.00 | 0.00 | 52 | 1005.8 | |
| 20260504160243 | 11 | 0.0 | 0.0 | 0.00 | 0.00 | 0.00 | 47 | 1005.6 | |
| 20260504150242 | 13 | 0.0 | 0.0 | 0.00 | 0.00 | 0.00 | 38 | 1005.5 | |
| 20260504140237 | 13 | 0.0 | 0.0 | 0.00 | 0.00 | 0.00 | 34 | 1005.1 | |
| 20260504130241 | 15 | 0.0 | 0.0 | 0.00 | 0.00 | 0.00 | 32 | 1005.0 | |
| 20260504120233 | 15 | 0.0 | 0.0 | 0.00 | 0.00 | 0.00 | 30 | 1005.0 | |
| 20260504110309 | 15 | 0.0 | 0.0 | 0.00 | 0.00 | 0.00 | 28 | 1004.9 | |
| 20260504100243 | 15 | 0.0 | 0.0 | 0.00 | 0.00 | 0.00 | 29 | 1005.1 | |
| 20260504080229 | 14 | 0.0 | 0.0 | 0.00 | 0.00 | 0.00 | 31 | 1005.4 | |
| 20260504070241 | 13 | 0.0 | 0.0 | 0.00 | 0.10 | 0.00 | 37 | 1005.6 | |
| 20260504060248 | 11 | 0.0 | 0.0 | 0.00 | 0.10 | 0.00 | 42 | 1005.8 | |
| 20260504050241 | 11 | 0.0 | 0.0 | 0.00 | 0.10 | 0.00 | 43 | 1005.5 | |
| 20260504040253 | 11 | 0.0 | 0.0 | 0.00 | 0.41 | 0.00 | 49 | 1005.5 | |
| 20260504030234 | 9 | 0.0 | 0.0 | 0.00 | 0.41 | 0.00 | 60 | 1005.4 | |
| 20260504020245 | 7 | 0.0 | 0.0 | 0.00 | 0.41 | 0.00 | 76 | 1004.9 | |
| 20260504010242 | 5 | 0.0 | 0.0 | 0.00 | 0.41 | 0.00 | 80 | 1004.5 | |
| 20260504000234 | 5 | 0.0 | 0.0 | 0.00 | 0.41 | 0.00 | 82 | 1003.9 | |
| 20260503230237 | 7 | 0.0 | 0.0 | 0.00 | 0.41 | 0.00 | 71 | 1002.6 | |
| 20260503220225 | 7 | 0.0 | 0.0 | 0.00 | 0.41 | 0.00 | 67 | 1001.9 |